Location: Newark
(39.6172°N, 96.8533°W)
Time: 11:19:39
(UTC+00:00)

Envisat - Pass Details

Date: 03 February 2020
Orbit: 764 x 766 km, 98.1° (Epoch: 23 February)

Event Time Altitude Azimuth Distance (km) Brightness Sun altitude
Rises 00:09:43 0° 163° (SSE) 3,218 6.2 -4.8°
Reaches altitude 10° 00:12:00 10° 162° (SSE) 2,295 5.5 -5.2°
Maximum altitude 00:17:04 81° 76° (ENE) 780 3.0 -6.1°
Drops below altitude 10° 00:22:10 10° 350° (N) 2,310 5.4 -7.0°
Sets 00:24:28 0° 349° (N) 3,240 6.2 -7.5°
